| time (UTC) | temp F | wind direction | speed MPH | gust MPH | rain 1hr in | rain 24hr in | rain mn in | humidity % | barometer mb |
| 20260508064556 | 45 | 259 | 4.0 | 5.0 | 0.00 | 0.00 | 0.00 | 77 | 1013.9 |
| 20260508064054 | 45 | 261 | 2.0 | 2.0 | 0.00 | 0.00 | 0.00 | 75 | 1013.7 |
| 20260508063551 | 45 | 282 | 2.0 | 2.0 | 0.00 | 0.00 | 0.00 | 76 | 1013.6 |
| 20260508063049 | 44 | 251 | 0.0 | 0.0 | 0.00 | 0.00 | 0.00 | 76 | 1013.7 |
| 20260508062546 | 44 | 243 | 0.0 | 0.0 | 0.00 | 0.00 | 0.00 | 76 | 1013.4 |
| 20260508062042 | 44 | 243 | 0.0 | 0.0 | 0.00 | 0.00 | 0.00 | 77 | 1013.6 |
| 20260508061540 | 44 | 243 | 0.0 | 0.0 | 0.00 | 0.00 | 0.00 | 77 | 1013.4 |
| 20260508061037 | 44 | 243 | 0.0 | 0.0 | 0.00 | 0.00 | 0.00 | 76 | 1013.7 |
| 20260508060534 | 44 | 243 | 0.0 | 0.0 | 0.00 | 0.00 | 0.00 | 75 | 1013.8 |
| 20260508060031 | 44 | 243 | 0.0 | 0.0 | 0.00 | 0.00 | 0.00 | 75 | 1013.6 |
| 20260508055526 | 44 | 243 | 0.0 | 0.0 | 0.00 | 0.00 | 0.00 | 75 | 1013.5 |
| 20260508055024 | 44 | 243 | 0.0 | 0.0 | 0.00 | 0.00 | 0.00 | 76 | 1013.7 |
| 20260508054520 | 44 | 243 | 0.0 | 0.0 | 0.00 | 0.00 | 0.00 | 75 | 1013.7 |
| 20260508054018 | 44 | 243 | 0.0 | 0.0 | 0.00 | 0.00 | 0.00 | 75 | 1014.0 |
| 20260508053514 | 44 | 243 | 0.0 | 0.0 | 0.00 | 0.00 | 0.00 | 74 | 1014.1 |
| 20260508053013 | 44 | 243 | 0.0 | 0.0 | 0.00 | 0.00 | 0.00 | 74 | 1014.0 |
| 20260508052509 | 44 | 243 | 0.0 | 0.0 | 0.00 | 0.00 | 0.00 | 75 | 1014.1 |
| 20260508052006 | 44 | 243 | 0.0 | 0.0 | 0.00 | 0.00 | 0.00 | 75 | 1014.1 |
| 20260508051502 | 44 | 243 | 0.0 | 0.0 | 0.00 | 0.00 | 0.00 | 73 | 1014.1 |
| 20260508050957 | 44 | 243 | 0.0 | 0.0 | 0.00 | 0.00 | 0.00 | 77 | 1013.8 |
| 20260508050454 | 44 | 243 | 0.0 | 0.0 | 0.00 | 0.00 | 0.00 | 77 | 1014.0 |
| 20260508045951 | 44 | 243 | 0.0 | 0.0 | 0.00 | 0.00 | 0.00 | 77 | 1014.1 |
| 20260508045448 | 44 | 243 | 0.0 | 0.0 | 0.00 | 0.00 | 0.00 | 79 | 1014.1 |
| 20260508044945 | 44 | 243 | 0.0 | 0.0 | 0.00 | 0.00 | 0.00 | 80 | 1014.2 |
| 20260508044442 | 44 | 243 | 0.0 | 0.0 | 0.00 | 0.00 | 0.00 | 80 | 1013.9 |
| 20260508043938 | 44 | 243 | 0.0 | 0.0 | 0.00 | 0.00 | 0.00 | 78 | 1014.5 |
| 20260508043436 | 43 | 243 | 0.0 | 0.0 | 0.00 | 0.00 | 0.00 | 79 | 1014.2 |
| 20260508042931 | 43 | 243 | 0.0 | 0.0 | 0.00 | 0.00 | 0.00 | 82 | 1014.2 |
| 20260508042430 | 43 | 243 | 0.0 | 0.0 | 0.00 | 0.00 | 0.00 | 84 | 1014.5 |
| 20260508041926 | 42 | 243 | 0.0 | 0.0 | 0.00 | 0.00 | 0.00 | 85 | 1014.4 |
| 20260508041423 | 42 | 243 | 0.0 | 0.0 | 0.00 | 0.00 | 0.00 | 85 | 1014.4 |
| 20260508040920 | 43 | 243 | 0.0 | 0.0 | 0.00 | 0.00 | 0.00 | 84 | 1014.2 |
| 20260508040417 | 43 | 243 | 0.0 | 0.0 | 0.00 | 0.00 | 0.00 | 82 | 1014.1 |
| 20260508035915 | 43 | 243 | 0.0 | 0.0 | 0.00 | 0.00 | 0.00 | 82 | 1013.9 |
| 20260508035411 | 43 | 242 | 0.0 | 0.0 | 0.00 | 0.00 | 0.00 | 83 | 1013.8 |
| 20260508034908 | 43 | 243 | 0.0 | 0.0 | 0.00 | 0.00 | 0.00 | 80 | 1013.8 |
| 20260508034406 | 43 | 242 | 0.0 | 0.0 | 0.00 | 0.00 | 0.00 | 79 | 1013.8 |
| 20260508033902 | 44 | 242 | 0.0 | 0.0 | 0.00 | 0.00 | 0.00 | 78 | 1013.8 |
| 20260508033400 | 44 | 242 | 0.0 | 0.0 | 0.00 | 0.00 | 0.00 | 76 | 1014.0 |
| 20260508032857 | 44 | 242 | 0.0 | 0.0 | 0.00 | 0.00 | 0.00 | 75 | 1013.9 |
| 20260508032355 | 45 | 243 | 0.0 | 0.0 | 0.00 | 0.00 | 0.00 | 73 | 1014.2 |
| 20260508031851 | 45 | 243 | 0.0 | 0.0 | 0.00 | 0.00 | 0.00 | 72 | 1014.1 |
| 20260508031348 | 45 | 243 | 0.0 | 0.0 | 0.00 | 0.00 | 0.00 | 71 | 1014.0 |
| 20260508030844 | 44 | 243 | 0.0 | 0.0 | 0.00 | 0.00 | 0.00 | 71 | 1013.9 |
| 20260508030341 | 44 | 243 | 0.0 | 0.0 | 0.00 | 0.00 | 0.00 | 71 | 1013.9 |
| 20260508025838 | 45 | 243 | 0.0 | 0.0 | 0.00 | 0.00 | 0.00 | 71 | 1013.7 |
| 20260508025335 | 45 | 243 | 0.0 | 0.0 | 0.00 | 0.00 | 0.00 | 71 | 1014.0 |
| 20260508024832 | 45 | 243 | 0.0 | 0.0 | 0.00 | 0.00 | 0.00 | 70 | 1014.0 |
| 20260508024328 | 45 | 243 | 0.0 | 0.0 | 0.00 | 0.00 | 0.00 | 70 | 1014.2 |
| 20260508023826 | 45 | 243 | 0.0 | 0.0 | 0.00 | 0.00 | 0.00 | 70 | 1014.0 |
| 20260508023322 | 45 | 243 | 0.0 | 0.0 | 0.00 | 0.00 | 0.00 | 69 | 1014.2 |
| 20260508022819 | 46 | 243 | 0.0 | 0.0 | 0.00 | 0.00 | 0.00 | 69 | 1013.8 |
| 20260508022315 | 45 | 243 | 0.0 | 0.0 | 0.00 | 0.00 | 0.00 | 69 | 1013.9 |
| 20260508021812 | 45 | 243 | 0.0 | 0.0 | 0.00 | 0.00 | 0.00 | 70 | 1014.1 |
| 20260508021308 | 45 | 243 | 0.0 | 0.0 | 0.00 | 0.00 | 0.00 | 70 | 1013.7 |
| 20260508020804 | 45 | 243 | 0.0 | 0.0 | 0.00 | 0.00 | 0.00 | 70 | 1013.9 |
| 20260508020302 | 46 | 243 | 0.0 | 0.0 | 0.00 | 0.00 | 0.00 | 69 | 1014.1 |
| 20260508015759 | 46 | 243 | 0.0 | 0.0 | 0.00 | 0.00 | 0.00 | 68 | 1013.9 |
| 20260508015256 | 46 | 243 | 0.0 | 0.0 | 0.00 | 0.00 | 0.00 | 67 | 1013.8 |
| 20260508014753 | 46 | 243 | 0.0 | 0.0 | 0.00 | 0.00 | 0.00 | 67 | 1013.9 |
| 20260508014250 | 46 | 243 | 0.0 | 0.0 | 0.00 | 0.00 | 0.00 | 69 | 1013.8 |
| 20260508013745 | 46 | 243 | 0.0 | 0.0 | 0.00 | 0.00 | 0.00 | 68 | 1013.9 |
| 20260508013242 | 47 | 243 | 0.0 | 0.0 | 0.00 | 0.00 | 0.00 | 68 | 1013.4 |
| 20260508012740 | 47 | 243 | 0.0 | 0.0 | 0.00 | 0.00 | 0.00 | 68 | 1013.8 |
| 20260508012236 | 47 | 243 | 0.0 | 0.0 | 0.00 | 0.00 | 0.00 | 66 | 1013.7 |
| 20260508011734 | 48 | 243 | 0.0 | 0.0 | 0.00 | 0.00 | 0.00 | 63 | 1013.5 |
| 20260508011232 | 48 | 243 | 0.0 | 0.0 | 0.00 | 0.00 | 0.00 | 63 | 1013.5 |
| 20260508010728 | 48 | 243 | 0.0 | 0.0 | 0.00 | 0.00 | 0.00 | 62 | 1013.5 |
| 20260508010227 | 49 | 295 | 0.0 | 0.0 | 0.00 | 0.00 | 0.00 | 64 | 1013.5 |
| 20260508005723 | 49 | 295 | 0.0 | 0.0 | 0.00 | 0.00 | 0.00 | 61 | 1013.4 |
| 20260508005220 | 49 | 295 | 0.0 | 0.0 | 0.00 | 0.00 | 0.00 | 62 | 1013.3 |
| 20260508004715 | 50 | 298 | 1.0 | 1.0 | 0.00 | 0.00 | 0.00 | 59 | 1013.3 |
| 20260508004212 | 50 | 303 | 0.0 | 0.0 | 0.00 | 0.00 | 0.00 | 59 | 1013.3 |
| 20260508003709 | 51 | 303 | 0.0 | 0.0 | 0.00 | 0.00 | 0.00 | 58 | 1013.2 |
| 20260508003206 | 52 | 296 | 1.0 | 1.0 | 0.00 | 0.00 | 0.00 | 54 | 1013.1 |
| 20260508002703 | 52 | 284 | 3.0 | 3.0 | 0.00 | 0.00 | 0.00 | 54 | 1013.2 |
| 20260508002200 | 52 | 240 | 1.0 | 1.0 | 0.00 | 0.00 | 0.00 | 56 | 1012.9 |
| 20260508001655 | 52 | 240 | 1.0 | 1.0 | 0.00 | 0.00 | 0.00 | 56 | 1013.2 |
| 20260508001152 | 52 | 257 | 1.0 | 1.0 | 0.00 | 0.00 | 0.00 | 56 | 1013.2 |
| 20260508000648 | 53 | 267 | 1.0 | 1.0 | 0.00 | 0.00 | 0.00 | 54 | 1013.0 |
| 20260508000145 | 54 | 256 | 1.0 | 2.0 | 0.00 | 0.00 | 0.00 | 52 | 1013.1 |
| 20260507235642 | 54 | 255 | 3.0 | 3.0 | 0.00 | 0.00 | 0.00 | 51 | 1013.0 |
| 20260507235139 | 54 | 260 | 4.0 | 5.0 | 0.00 | 0.00 | 0.00 | 50 | 1012.8 |
| 20260507234636 | 55 | 277 | 5.0 | 6.0 | 0.00 | 0.00 | 0.00 | 49 | 1012.7 |
| 20260507234132 | 55 | 284 | 2.0 | 3.0 | 0.00 | 0.00 | 0.00 | 50 | 1012.7 |
| 20260507233629 | 55 | 276 | 4.0 | 6.0 | 0.00 | 0.00 | 0.00 | 49 | 1012.8 |
| 20260507233128 | 55 | 259 | 3.0 | 3.0 | 0.00 | 0.00 | 0.00 | 49 | 1013.0 |
| 20260507232625 | 55 | 236 | 5.0 | 7.0 | 0.00 | 0.00 | 0.00 | 51 | 1013.0 |
| 20260507232121 | 55 | 300 | 8.0 | 10.0 | 0.00 | 0.00 | 0.00 | 49 | 1013.0 |
| 20260507231617 | 55 | 267 | 11.0 | 15.0 | 0.00 | 0.00 | 0.00 | 48 | 1012.8 |
| 20260507231115 | 55 | 278 | 4.0 | 6.0 | 0.00 | 0.00 | 0.00 | 49 | 1012.9 |
| 20260507230611 | 55 | 291 | 12.0 | 17.0 | 0.00 | 0.00 | 0.00 | 47 | 1013.0 |
| 20260507230109 | 55 | 269 | 9.0 | 11.0 | 0.00 | 0.00 | 0.00 | 49 | 1012.8 |
| 20260507225609 | 56 | 276 | 10.0 | 11.0 | 0.00 | 0.00 | 0.00 | 47 | 1012.8 |
| 20260507225106 | 56 | 261 | 6.0 | 8.0 | 0.00 | 0.00 | 0.00 | 48 | 1013.2 |
| 20260507224601 | 56 | 251 | 16.0 | 18.0 | 0.00 | 0.00 | 0.00 | 46 | 1012.9 |
| 20260507224058 | 56 | 266 | 13.0 | 17.0 | 0.00 | 0.00 | 0.00 | 47 | 1012.9 |
| 20260507223554 | 56 | 287 | 11.0 | 13.0 | 0.00 | 0.00 | 0.00 | 49 | 1012.9 |
| 20260507223051 | 56 | 266 | 7.0 | 9.0 | 0.00 | 0.00 | 0.00 | 48 | 1013.0 |
| 20260507222548 | 56 | 321 | 14.0 | 18.0 | 0.00 | 0.00 | 0.00 | 49 | 1012.9 |
| 20260507222044 | 56 | 291 | 17.0 | 20.0 | 0.00 | 0.00 | 0.00 | 48 | 1013.0 |
| 20260507221541 | 57 | 260 | 5.0 | 8.0 | 0.00 | 0.00 | 0.00 | 49 | 1012.9 |
| 20260507221038 | 57 | 280 | 8.0 | 10.0 | 0.00 | 0.00 | 0.00 | 47 | 1013.0 |
| 20260507220535 | 57 | 282 | 5.0 | 7.0 | 0.00 | 0.00 | 0.00 | 47 | 1012.9 |
| 20260507220033 | 56 | 340 | 6.0 | 9.0 | 0.00 | 0.00 | 0.00 | 49 | 1012.9 |
| 20260507215529 | 55 | 272 | 8.0 | 10.0 | 0.00 | 0.00 | 0.00 | 51 | 1012.6 |
| 20260507215027 | 55 | 290 | 9.0 | 13.0 | 0.00 | 0.00 | 0.00 | 51 | 1012.7 |
| 20260507214524 | 56 | 277 | 14.0 | 17.0 | 0.00 | 0.00 | 0.00 | 50 | 1012.5 |
| 20260507214020 | 56 | 278 | 11.0 | 15.0 | 0.00 | 0.00 | 0.00 | 51 | 1012.6 |
| 20260507213516 | 57 | 276 | 7.0 | 8.0 | 0.00 | 0.00 | 0.00 | 51 | 1012.4 |
| 20260507213013 | 55 | 271 | 12.0 | 15.0 | 0.00 | 0.00 | 0.00 | 52 | 1012.4 |
| 20260507212508 | 55 | 274 | 4.0 | 6.0 | 0.00 | 0.00 | 0.00 | 53 | 1012.1 |
| 20260507212006 | 56 | 251 | 10.0 | 17.0 | 0.00 | 0.00 | 0.00 | 53 | 1012.1 |
| 20260507211502 | 58 | 315 | 3.0 | 3.0 | 0.00 | 0.00 | 0.00 | 52 | 1011.9 |
| 20260507210959 | 56 | 256 | 8.0 | 9.0 | 0.00 | 0.00 | 0.00 | 53 | 1011.9 |
| 20260507210456 | 57 | 268 | 3.0 | 6.0 | 0.00 | 0.00 | 0.00 | 52 | 1011.7 |
| 20260507205952 | 56 | 259 | 7.0 | 9.0 | 0.00 | 0.00 | 0.00 | 53 | 1011.9 |
| 20260507205450 | 58 | 338 | 8.0 | 11.0 | 0.00 | 0.00 | 0.00 | 50 | 1011.8 |
| 20260507204946 | 58 | 303 | 9.0 | 10.0 | 0.00 | 0.00 | 0.00 | 52 | 1011.7 |
| 20260507204442 | 57 | 307 | 9.0 | 13.0 | 0.00 | 0.00 | 0.00 | 49 | 1012.1 |
| 20260507203940 | 57 | 281 | 11.0 | 16.0 | 0.00 | 0.00 | 0.00 | 47 | 1011.8 |
| 20260507203438 | 56 | 290 | 9.0 | 11.0 | 0.00 | 0.00 | 0.00 | 50 | 1011.8 |
| 20260507202934 | 57 | 307 | 6.0 | 7.0 | 0.00 | 0.00 | 0.00 | 47 | 1011.5 |
| 20260507202431 | 56 | 271 | 5.0 | 6.0 | 0.00 | 0.00 | 0.00 | 50 | 1011.7 |
| 20260507201926 | 58 | 210 | 4.0 | 5.0 | 0.00 | 0.00 | 0.00 | 51 | 1011.6 |
| 20260507201421 | 57 | 262 | 5.0 | 6.0 | 0.00 | 0.00 | 0.00 | 52 | 1011.6 |
| 20260507200919 | 59 | 275 | 7.0 | 9.0 | 0.00 | 0.00 | 0.00 | 53 | 1011.8 |
| 20260507200414 | 58 | 262 | 5.0 | 7.0 | 0.00 | 0.00 | 0.00 | 51 | 1011.7 |
| 20260507195910 | 58 | 259 | 9.0 | 13.0 | 0.00 | 0.00 | 0.00 | 52 | 1011.7 |
| 20260507195408 | 58 | 249 | 7.0 | 8.0 | 0.00 | 0.00 | 0.00 | 49 | 1011.8 |
| 20260507194905 | 58 | 266 | 6.0 | 8.0 | 0.00 | 0.00 | 0.00 | 50 | 1012.0 |
| 20260507194401 | 58 | 269 | 6.0 | 7.0 | 0.00 | 0.00 | 0.00 | 51 | 1011.9 |
| 20260507193857 | 58 | 276 | 9.0 | 11.0 | 0.00 | 0.00 | 0.00 | 49 | 1012.1 |
| 20260507193355 | 57 | 253 | 7.0 | 10.0 | 0.00 | 0.00 | 0.00 | 53 | 1011.9 |
| 20260507192851 | 56 | 299 | 4.0 | 6.0 | 0.00 | 0.00 | 0.00 | 52 | 1012.2 |
| 20260507192347 | 57 | 269 | 4.0 | 5.0 | 0.00 | 0.00 | 0.00 | 53 | 1012.2 |
| 20260507191844 | 57 | 272 | 7.0 | 8.0 | 0.00 | 0.00 | 0.00 | 51 | 1012.1 |
| 20260507191340 | 57 | 259 | 5.0 | 7.0 | 0.00 | 0.00 | 0.00 | 51 | 1012.0 |
| 20260507190837 | 56 | 248 | 3.0 | 5.0 | 0.00 | 0.00 | 0.00 | 53 | 1012.3 |
| 20260507190336 | 56 | 301 | 12.0 | 16.0 | 0.00 | 0.00 | 0.00 | 52 | 1012.2 |
| 20260507185834 | 56 | 282 | 5.0 | 6.0 | 0.00 | 0.00 | 0.00 | 51 | 1012.1 |
| 20260507185331 | 56 | 288 | 7.0 | 13.0 | 0.00 | 0.00 | 0.00 | 50 | 1012.1 |
| 20260507184828 | 56 | 280 | 4.0 | 5.0 | 0.00 | 0.00 | 0.00 | 53 | 1012.0 |
| 20260507184326 | 56 | 299 | 14.0 | 16.0 | 0.00 | 0.00 | 0.00 | 50 | 1012.2 |
| 20260507183822 | 55 | 269 | 8.0 | 10.0 | 0.00 | 0.00 | 0.00 | 51 | 1012.3 |
| 20260507183319 | 56 | 250 | 6.0 | 7.0 | 0.00 | 0.00 | 0.00 | 51 | 1012.2 |
| 20260507182817 | 57 | 265 | 5.0 | 8.0 | 0.00 | 0.00 | 0.00 | 51 | 1011.9 |
| 20260507182312 | 58 | 285 | 5.0 | 6.0 | 0.00 | 0.00 | 0.00 | 48 | 1012.0 |
| 20260507181809 | 55 | 274 | 3.0 | 5.0 | 0.00 | 0.00 | 0.00 | 52 | 1012.1 |
| 20260507181305 | 56 | 268 | 5.0 | 7.0 | 0.00 | 0.00 | 0.00 | 51 | 1012.3 |
| 20260507180802 | 56 | 276 | 5.0 | 6.0 | 0.00 | 0.00 | 0.00 | 56 | 1012.2 |
| 20260507180259 | 58 | 244 | 5.0 | 6.0 | 0.00 | 0.00 | 0.00 | 51 | 1012.3 |
| 20260507175754 | 57 | 253 | 11.0 | 16.0 | 0.00 | 0.00 | 0.00 | 52 | 1012.3 |
| 20260507175251 | 57 | 284 | 5.0 | 8.0 | 0.00 | 0.00 | 0.00 | 51 | 1012.3 |
| 20260507174748 | 55 | 260 | 6.0 | 6.0 | 0.00 | 0.00 | 0.00 | 53 | 1012.4 |
| 20260507174247 | 56 | 188 | 3.0 | 3.0 | 0.00 | 0.00 | 0.00 | 53 | 1012.6 |
| 20260507173744 | 57 | 236 | 7.0 | 9.0 | 0.00 | 0.00 | 0.00 | 54 | 1012.3 |
| 20260507173241 | 55 | 234 | 2.0 | 2.0 | 0.00 | 0.00 | 0.00 | 54 | 1012.7 |
| 20260507172737 | 55 | 288 | 4.0 | 6.0 | 0.00 | 0.00 | 0.00 | 51 | 1012.8 |
| 20260507172234 | 56 | 274 | 7.0 | 9.0 | 0.00 | 0.00 | 0.00 | 54 | 1012.7 |
| 20260507171734 | 55 | 185 | 5.0 | 7.0 | 0.00 | 0.00 | 0.00 | 54 | 1012.8 |
| 20260507171232 | 56 | 189 | 6.0 | 7.0 | 0.00 | 0.00 | 0.00 | 54 | 1012.8 |
| 20260507170729 | 56 | 274 | 4.0 | 5.0 | 0.00 | 0.00 | 0.00 | 52 | 1012.8 |
| 20260507170226 | 56 | 222 | 3.0 | 5.0 | 0.00 | 0.00 | 0.00 | 54 | 1012.7 |
| 20260507165721 | 56 | 168 | 3.0 | 3.0 | 0.00 | 0.00 | 0.00 | 54 | 1013.0 |
| 20260507165218 | 56 | 212 | 5.0 | 7.0 | 0.00 | 0.00 | 0.00 | 56 | 1012.9 |
| 20260507164714 | 55 | 275 | 11.0 | 13.0 | 0.00 | 0.00 | 0.00 | 51 | 1013.0 |
| 20260507164211 | 56 | 243 | 6.0 | 11.0 | 0.00 | 0.00 | 0.00 | 51 | 1012.9 |
| 20260507163708 | 55 | 195 | 7.0 | 8.0 | 0.00 | 0.00 | 0.00 | 53 | 1012.9 |
| 20260507163206 | 55 | 265 | 5.0 | 7.0 | 0.00 | 0.00 | 0.00 | 55 | 1013.1 |
| 20260507162702 | 54 | 176 | 3.0 | 5.0 | 0.00 | 0.00 | 0.00 | 54 | 1013.1 |
| 20260507162158 | 55 | 301 | 5.0 | 9.0 | 0.00 | 0.00 | 0.00 | 57 | 1012.9 |
| 20260507161654 | 54 | 257 | 10.0 | 13.0 | 0.00 | 0.00 | 0.00 | 50 | 1013.0 |
| 20260507161151 | 55 | 257 | 6.0 | 10.0 | 0.00 | 0.00 | 0.00 | 56 | 1012.8 |
| 20260507160647 | 54 | 260 | 7.0 | 8.0 | 0.00 | 0.00 | 0.00 | 50 | 1012.8 |
| 20260507160144 | 54 | 282 | 3.0 | 5.0 | 0.00 | 0.00 | 0.00 | 55 | 1012.8 |
| 20260507155639 | 54 | 296 | 6.0 | 7.0 | 0.00 | 0.00 | 0.00 | 53 | 1012.9 |
| 20260507155136 | 54 | 257 | 6.0 | 7.0 | 0.00 | 0.00 | 0.00 | 56 | 1012.9 |
| 20260507154633 | 53 | 290 | 7.0 | 10.0 | 0.00 | 0.00 | 0.00 | 54 | 1012.9 |
| 20260507154131 | 54 | 276 | 6.0 | 8.0 | 0.00 | 0.00 | 0.00 | 57 | 1012.9 |
| 20260507153627 | 54 | 270 | 8.0 | 14.0 | 0.00 | 0.00 | 0.00 | 57 | 1012.9 |
| 20260507153123 | 54 | 245 | 12.0 | 15.0 | 0.00 | 0.00 | 0.00 | 55 | 1013.0 |
| 20260507152620 | 53 | 169 | 6.0 | 9.0 | 0.00 | 0.00 | 0.00 | 58 | 1013.0 |
| 20260507152116 | 53 | 219 | 6.0 | 9.0 | 0.00 | 0.00 | 0.00 | 57 | 1013.0 |
| 20260507151612 | 53 | 189 | 5.0 | 7.0 | 0.00 | 0.00 | 0.00 | 57 | 1013.1 |
| 20260507151109 | 54 | 194 | 6.0 | 7.0 | 0.00 | 0.00 | 0.00 | 60 | 1012.9 |
| 20260507150606 | 53 | 234 | 7.0 | 13.0 | 0.00 | 0.00 | 0.00 | 57 | 1013.1 |
| 20260507145557 | 53 | 182 | 2.0 | 3.0 | 0.00 | 0.00 | 0.00 | 60 | 1013.3 |
| 20260507145056 | 52 | 207 | 5.0 | 6.0 | 0.00 | 0.00 | 0.00 | 63 | 1013.1 |
| 20260507144552 | 52 | 291 | 5.0 | 9.0 | 0.00 | 0.00 | 0.00 | 59 | 1013.2 |
| 20260507144050 | 52 | 264 | 4.0 | 6.0 | 0.00 | 0.00 | 0.00 | 60 | 1013.5 |
| 20260507143546 | 52 | 281 | 11.0 | 14.0 | 0.00 | 0.00 | 0.00 | 61 | 1013.3 |
| 20260507143045 | 52 | 253 | 6.0 | 9.0 | 0.00 | 0.00 | 0.00 | 58 | 1013.4 |
| 20260507142544 | 52 | 273 | 8.0 | 10.0 | 0.00 | 0.00 | 0.00 | 62 | 1013.3 |
| 20260507142042 | 52 | 250 | 9.0 | 13.0 | 0.00 | 0.00 | 0.00 | 63 | 1013.5 |
| 20260507141538 | 52 | 286 | 8.0 | 9.0 | 0.00 | 0.00 | 0.00 | 63 | 1013.3 |
| 20260507141035 | 52 | 289 | 9.0 | 13.0 | 0.00 | 0.00 | 0.00 | 64 | 1013.3 |
| 20260507140531 | 52 | 291 | 5.0 | 7.0 | 0.00 | 0.00 | 0.00 | 69 | 1013.6 |
| 20260507140029 | 52 | 258 | 3.0 | 5.0 | 0.00 | 0.00 | 0.00 | 71 | 1013.8 |
| 20260507135526 | 51 | 189 | 8.0 | 14.0 | 0.00 | 0.00 | 0.00 | 73 | 1013.6 |
| 20260507135023 | 50 | 181 | 4.0 | 7.0 | 0.00 | 0.00 | 0.00 | 73 | 1013.8 |
| 20260507134519 | 50 | 263 | 5.0 | 5.0 | 0.00 | 0.00 | 0.00 | 74 | 1013.9 |
| 20260507134015 | 50 | 244 | 3.0 | 6.0 | 0.00 | 0.00 | 0.00 | 75 | 1013.8 |
| 20260507133511 | 49 | 226 | 4.0 | 6.0 | 0.00 | 0.00 | 0.00 | 76 | 1013.8 |
| 20260507133010 | 49 | 281 | 4.0 | 7.0 | 0.00 | 0.00 | 0.00 | 78 | 1013.9 |
| 20260507132506 | 49 | 292 | 6.0 | 8.0 | 0.00 | 0.00 | 0.00 | 78 | 1013.9 |
| 20260507132002 | 48 | 267 | 4.0 | 5.0 | 0.00 | 0.00 | 0.00 | 79 | 1013.8 |
| 20260507131459 | 48 | 188 | 3.0 | 3.0 | 0.00 | 0.00 | 0.00 | 80 | 1013.9 |
| 20260507130956 | 48 | 173 | 2.0 | 2.0 | 0.00 | 0.00 | 0.00 | 81 | 1014.2 |
| 20260507130453 | 47 | 253 | 3.0 | 5.0 | 0.00 | 0.00 | 0.00 | 82 | 1014.1 |
| 20260507125952 | 47 | 274 | 3.0 | 3.0 | 0.00 | 0.00 | 0.00 | 83 | 1013.9 |
| 20260507125450 | 46 | 279 | 2.0 | 2.0 | 0.00 | 0.00 | 0.00 | 84 | 1013.8 |
| 20260507124947 | 46 | 210 | 2.0 | 2.0 | 0.00 | 0.00 | 0.00 | 85 | 1013.8 |
| 20260507124443 | 46 | 264 | 3.0 | 3.0 | 0.00 | 0.00 | 0.00 | 85 | 1013.7 |
| 20260507123941 | 46 | 245 | 2.0 | 2.0 | 0.00 | 0.00 | 0.00 | 86 | 1013.8 |
| 20260507123438 | 46 | 276 | 4.0 | 5.0 | 0.00 | 0.00 | 0.00 | 85 | 1013.7 |
| 20260507122935 | 45 | 174 | 1.0 | 1.0 | 0.00 | 0.00 | 0.00 | 86 | 1013.9 |
| 20260507122430 | 45 | 246 | 2.0 | 2.0 | 0.00 | 0.00 | 0.00 | 87 | 1013.8 |
| 20260507121926 | 45 | 160 | 0.0 | 1.0 | 0.00 | 0.00 | 0.00 | 88 | 1013.6 |
| 20260507121422 | 44 | 249 | 3.0 | 3.0 | 0.00 | 0.00 | 0.00 | 89 | 1013.7 |
| 20260507120919 | 43 | 266 | 5.0 | 6.0 | 0.00 | 0.00 | 0.00 | 91 | 1013.8 |
| 20260507120415 | 43 | 241 | 1.0 | 2.0 | 0.00 | 0.00 | 0.00 | 93 | 1013.9 |
| 20260507115911 | 42 | 201 | 1.0 | 1.0 | 0.00 | 0.00 | 0.00 | 94 | 1013.7 |
| 20260507115407 | 42 | 178 | 0.0 | 0.0 | 0.00 | 0.00 | 0.00 | 95 | 1013.6 |
| 20260507114903 | 41 | 179 | 0.0 | 0.0 | 0.00 | 0.00 | 0.00 | 95 | 1013.6 |
| 20260507114400 | 41 | 167 | 0.0 | 0.0 | 0.00 | 0.00 | 0.00 | 96 | 1013.7 |
| 20260507113857 | 40 | 162 | 0.0 | 0.0 | 0.00 | 0.00 | 0.00 | 97 | 1013.6 |
| 20260507113354 | 39 | 154 | 0.0 | 0.0 | 0.00 | 0.00 | 0.00 | 98 | 1013.6 |
| 20260507112852 | 39 | 151 | 0.0 | 0.0 | 0.00 | 0.00 | 0.00 | 98 | 1013.6 |
| 20260507112349 | 39 | 152 | 0.0 | 0.0 | 0.00 | 0.00 | 0.00 | 98 | 1013.5 |
| 20260507111847 | 38 | 148 | 0.0 | 0.0 | 0.00 | 0.00 | 0.00 | 98 | 1013.6 |
| 20260507111343 | 38 | 148 | 0.0 | 0.0 | 0.00 | 0.00 | 0.00 | 98 | 1013.5 |
| 20260507110839 | 38 | 139 | 0.0 | 0.0 | 0.00 | 0.00 | 0.00 | 99 | 1013.6 |
| 20260507110335 | 38 | 139 | 0.0 | 0.0 | 0.00 | 0.00 | 0.00 | 99 | 1013.5 |
| 20260507105833 | 38 | 139 | 0.0 | 0.0 | 0.00 | 0.00 | 0.00 | 99 | 1013.3 |
| 20260507105329 | 37 | 139 | 0.0 | 0.0 | 0.00 | 0.00 | 0.00 | 99 | 1013.6 |
| 20260507104826 | 37 | 139 | 0.0 | 0.0 | 0.00 | 0.00 | 0.00 | 99 | 1013.5 |
| 20260507104322 | 37 | 139 | 0.0 | 0.0 | 0.00 | 0.00 | 0.00 | 99 | 1013.6 |
| 20260507103818 | 37 | 139 | 0.0 | 0.0 | 0.00 | 0.00 | 0.00 | 99 | 1013.4 |
| 20260507103315 | 37 | 139 | 0.0 | 0.0 | 0.00 | 0.00 | 0.00 | 99 | 1013.4 |
| 20260507102812 | 37 | 139 | 0.0 | 0.0 | 0.00 | 0.00 | 0.00 | 99 | 1013.4 |
| 20260507102309 | 37 | 139 | 0.0 | 0.0 | 0.00 | 0.00 | 0.00 | 99 | 1013.4 |
| 20260507101805 | 37 | 139 | 0.0 | 0.0 | 0.00 | 0.00 | 0.00 | 99 | 1013.2 |
| 20260507101305 | 37 | 139 | 0.0 | 0.0 | 0.00 | 0.00 | 0.00 | 99 | 1013.4 |
| 20260507100802 | 37 | 139 | 0.0 | 0.0 | 0.00 | 0.00 | 0.00 | 99 | 1013.3 |
| 20260507100300 | 37 | 139 | 0.0 | 0.0 | 0.00 | 0.00 | 0.00 | 99 | 1013.3 |
| 20260507095758 | 37 | 138 | 0.0 | 0.0 | 0.00 | 0.00 | 0.00 | 99 | 1013.3 |
| 20260507095254 | 37 | 138 | 0.0 | 0.0 | 0.00 | 0.00 | 0.00 | 99 | 1013.2 |
| 20260507094751 | 37 | 138 | 0.0 | 0.0 | 0.00 | 0.00 | 0.00 | 99 | 1013.3 |
| 20260507094248 | 37 | 138 | 0.0 | 0.0 | 0.00 | 0.00 | 0.00 | 99 | 1013.3 |
| 20260507093745 | 37 | 138 | 0.0 | 0.0 | 0.00 | 0.00 | 0.00 | 99 | 1013.2 |
| 20260507093243 | 37 | 138 | 0.0 | 0.0 | 0.00 | 0.00 | 0.00 | 99 | 1013.3 |
| 20260507092741 | 37 | 138 | 0.0 | 0.0 | 0.00 | 0.00 | 0.00 | 99 | 1013.3 |
| 20260507092237 | 37 | 138 | 0.0 | 0.0 | 0.00 | 0.00 | 0.00 | 99 | 1013.3 |
| 20260507091734 | 37 | 138 | 0.0 | 0.0 | 0.00 | 0.00 | 0.00 | 99 | 1013.3 |
| 20260507091230 | 38 | 138 | 0.0 | 0.0 | 0.00 | 0.00 | 0.00 | 99 | 1013.3 |
| 20260507090725 | 38 | 138 | 0.0 | 0.0 | 0.00 | 0.00 | 0.00 | 99 | 1013.3 |
| 20260507090222 | 38 | 138 | 0.0 | 0.0 | 0.00 | 0.00 | 0.00 | 99 | 1013.4 |
| 20260507085720 | 38 | 138 | 0.0 | 0.0 | 0.00 | 0.00 | 0.00 | 99 | 1013.2 |
| 20260507085217 | 38 | 138 | 0.0 | 0.0 | 0.00 | 0.00 | 0.00 | 99 | 1013.3 |
| 20260507084713 | 38 | 138 | 0.0 | 0.0 | 0.00 | 0.00 | 0.00 | 99 | 1013.3 |
| 20260507084210 | 38 | 138 | 0.0 | 0.0 | 0.00 | 0.00 | 0.00 | 99 | 1013.5 |
| 20260507083707 | 38 | 138 | 0.0 | 0.0 | 0.00 | 0.00 | 0.00 | 99 | 1013.3 |
| 20260507083204 | 38 | 138 | 0.0 | 0.0 | 0.00 | 0.00 | 0.00 | 99 | 1013.6 |
| 20260507082700 | 38 | 138 | 0.0 | 0.0 | 0.00 | 0.00 | 0.00 | 99 | 1013.4 |
| 20260507082156 | 38 | 138 | 0.0 | 0.0 | 0.00 | 0.00 | 0.00 | 99 | 1013.4 |
| 20260507081653 | 38 | 138 | 0.0 | 0.0 | 0.00 | 0.00 | 0.00 | 99 | 1013.5 |
| 20260507081149 | 38 | 138 | 0.0 | 0.0 | 0.00 | 0.00 | 0.00 | 99 | 1013.5 |
| 20260507080646 | 38 | 138 | 0.0 | 0.0 | 0.00 | 0.00 | 0.00 | 98 | 1013.6 |
| 20260507080142 | 38 | 138 | 0.0 | 0.0 | 0.00 | 0.00 | 0.00 | 98 | 1013.5 |
| 20260507075637 | 38 | 70 | 0.0 | 0.0 | 0.00 | 0.00 | 0.00 | 98 | 1013.6 |
| 20260507075133 | 39 | 70 | 0.0 | 0.0 | 0.00 | 0.00 | 0.00 | 98 | 1013.6 |
| 20260507074630 | 39 | 70 | 0.0 | 0.0 | 0.00 | 0.00 | 0.00 | 98 | 1013.5 |
| 20260507074129 | 39 | 70 | 0.0 | 0.0 | 0.00 | 0.00 | 0.00 | 98 | 1013.4 |
| 20260507073625 | 39 | 70 | 0.0 | 0.0 | 0.00 | 0.00 | 0.00 | 97 | 1013.3 |
| 20260507073121 | 39 | 70 | 0.0 | 0.0 | 0.00 | 0.00 | 0.00 | 97 | 1013.5 |
| 20260507072619 | 39 | 70 | 0.0 | 0.0 | 0.00 | 0.00 | 0.00 | 97 | 1013.7 |
| 20260507072116 | 39 | 70 | 0.0 | 0.0 | 0.00 | 0.00 | 0.00 | 97 | 1013.6 |
| 20260507071613 | 39 | 70 | 0.0 | 0.0 | 0.00 | 0.00 | 0.00 | 97 | 1013.5 |
| 20260507071109 | 39 | 70 | 0.0 | 0.0 | 0.00 | 0.00 | 0.00 | 96 | 1013.5 |
| 20260507070607 | 40 | 70 | 0.0 | 0.0 | 0.00 | 0.00 | 0.00 | 96 | 1013.5 |
| 20260507070104 | 40 | 70 | 0.0 | 0.0 | 0.00 | 0.00 | 0.00 | 96 | 1013.5 |
| 20260507065600 | 40 | 70 | 0.0 | 0.0 | 0.00 | 0.00 | 0.00 | 95 | 1013.5 |
| 20260507065057 | 40 | 70 | 0.0 | 0.0 | 0.00 | 0.00 | 0.00 | 95 | 1013.5 |